Flag for U.S.A. Weather past 2 weeks in Fairbanks, Alaska, U.S.A.

Now
69 °F

Sunny.


Feels Like: 69 °F
Forecast: 59 / 71 °F
Wind: 3 mph from Southeast

Location: Wainwright U. S. Army Airfield

Current Time: Jul 10, 2014 at 10:54:48 PM

Latest Report: Jul 10, 2014 at 9:56 PM


Visibility: 10 mi

Pressure: 29.62 "Hg

Humidity: 51%

Dew point: 50 °F

Location of FairbanksLocation

Historic Weather in Fairbanks — Graph

°F

Fairbanks temperature yesterday

Maximum temperature yesterday: 81 °F (at 5:55 PM)
Minimum temperature yesterday: 55 °F (at 4:56 AM)
Average temperature yesterday: 69 °F

Past Weeks' High & Low Weather Summary

 TemperatureHumidityPressure
High86 °F (Jul 6, 4:56 PM)97% (Jun 25, 11:56 PM)30.00 "Hg (Jun 25, 11:56 PM)
Low47 °F (Jun 27, 3:56 AM)22% (Jun 29, 6:56 PM)29.47 "Hg (Jun 25, 10:56 PM)
Average62 °F68%29.81 "Hg
* Reported Jun 25 9:56 PM — Jul 10 9:56 PM, Fairbanks, Weather by CustomWeather, © 2014

Note: Actual official high and low records may vary slightly from our data, if they occured in-between our weather recording intervals... More about our weather records

Advertising

Fairbanks weather history for previous 24 hours

 ConditionsComfort  
Time TempWeatherWind HumidityBarometerVisibility
9:56 PM
Jul 10
69 °FSunny.3 mph51%29.62 "Hg10 mi
8:56 PM72 °FSunny.6 mph40%29.63 "Hg10 mi
7:56 PM75 °FSunny.10 mph34%29.65 "Hg10 mi
6:55 PM75 °FPartly sunny.12 mph39%29.65 "Hg13 mi
5:55 PM73 °FBroken clouds.8 mph41%29.68 "Hg13 mi
4:55 PM75 °FMostly cloudy.8 mph34%29.69 "Hg13 mi
3:55 PM77 °FBroken clouds.10 mph34%29.71 "Hg13 mi
2:55 PM77 °FBroken clouds.12 mph32%29.72 "Hg13 mi
1:55 PM75 °FCloudy.7 mph34%29.74 "Hg13 mi
12:55 PM75 °FPartly sunny.12 mph34%29.76 "Hg13 mi
11:55 AM73 °FPartly sunny.3 mph38%29.78 "Hg10 mi
10:55 AM70 °FPartly sunny.6 mph50%29.80 "Hg10 mi
9:55 AM68 °FBroken clouds.6 mph53%29.82 "Hg13 mi
8:55 AM64 °FBroken clouds.5 mph64%29.83 "Hg13 mi
7:55 AM63 °FBroken clouds.5 mph68%29.85 "Hg13 mi
6:55 AM61 °FBroken clouds.5 mph68%29.85 "Hg13 mi
5:56 AM56 °FSunny.No wind77%29.85 "Hg10 mi
4:56 AM56 °FPartly sunny.No wind75%29.87 "Hg10 mi
3:56 AM56 °FOvercast.3 mph72%29.88 "Hg10 mi
2:56 AM57 °FPassing clouds.No wind67%29.89 "Hg10 mi
1:56 AM59 °FBroken clouds.No wind62%29.88 "Hg10 mi
12:56 AM58 °FSunny.No wind75%29.89 "Hg10 mi
11:56 PM
Jul 9
63 °FSunny.No wind60%29.88 "Hg10 mi
10:56 PM71 °FSunny.No wind39%29.87 "Hg10 mi
Weather by CustomWeather, © 2014

See weather overviewHow to use our weather pages